Weather History for Anoka County, MN

Change the Weather History Date:

Monday, July 29, 2013

  Actual Average Record
Temperature  
Mean Temperature 64 °F -  
Max Temperature 77 °F 79 °F 95 °F (2006)
Min Temperature 50 °F 60 °F 50 °F (2013)
Degree Days  
Heating Degree Days 2    
Growing Degree Days 14 (Base 50)    
Moisture  
Dew Point 54 °F    
Average Humidity 77    
Maximum Humidity 100    
Minimum Humidity 44    
Precipitation  
Precipitation 0.00 in - - ()
Sea Level Pressure  
Sea Level Pressure 30.09 in    
Wind  
Wind Speed 2 mph (SE)    
Max Wind Speed 10 mph    
Max Gust Speed -    
Visibility 9 miles    
Events Rain    
Averages and records for this station are not official NWS values.
T = Trace of Precipitation, MM = Missing Value Source: NWS Daily Summary

Daily Weather History Graph

Daily Weather History Graph

Search for Another Location

Airport:

Trip Planner

Search our weather history database for the weather conditions in past years. The results will help you decide how hot, cold, wet, or windy it might be!

Date:

Astronomy

Jul. 29, 2013 Rise Set
Actual Time 5:54 AM CDT 8:43 PM CDT
Civil Twilight 5:20 AM CDT 9:17 PM CDT
Nautical Twilight 4:37 AM CDT 10:00 PM CDT
Astronomical Twilight 3:46 AM CDT 10:50 PM CDT
Moon No Moon Rise 2:01 PM CDT (7/29)
Length of Visible Light 15h 56m
Length of Day
14h 48m
Waning Gibbous, 50% of the Moon is Illuminated
Jul 29
Waning Gibbous
Jul 29
Last Quarter
Aug 6
New
Aug 14
First Quarter
Aug 20
Full

Hourly Weather History & Observations

Time (CDT) Temp. Dew Point Humidity Pressure Visibility Wind Dir Wind Speed Gust Speed Precip Events Conditions
12:14 AM 55.4 °F 53.6 °F 94% 30.08 in 10.0 mi Calm Calm - N/A   Clear
12:34 AM 55.4 °F 53.6 °F 94% 30.08 in 10.0 mi Calm Calm - N/A   Clear
12:54 AM 55.4 °F 53.6 °F 94% 30.07 in 10.0 mi Calm Calm - N/A   Clear
1:14 AM 55.4 °F 53.6 °F 94% 30.07 in 10.0 mi Calm Calm - N/A   Clear
1:34 AM 53.6 °F 51.8 °F 94% 30.07 in 10.0 mi Calm Calm - N/A   Clear
1:54 AM 53.6 °F 51.8 °F 94% 30.07 in 10.0 mi Calm Calm - N/A   Clear
2:13 AM 55.4 °F 51.8 °F 88% 30.07 in 10.0 mi Calm Calm - N/A   Clear
2:34 AM 53.6 °F 51.8 °F 94% 30.08 in 10.0 mi Calm Calm - N/A   Clear
2:54 AM 53.6 °F 51.8 °F 94% 30.08 in 3.0 mi Calm Calm - N/A   Clear
3:14 AM 53.6 °F 51.8 °F 94% 30.08 in 7.0 mi Calm Calm - N/A   Clear
3:34 AM 51.8 °F 51.8 °F 100% 30.07 in 10.0 mi Calm Calm - N/A   Clear
3:54 AM 53.6 °F 51.8 °F 94% 30.08 in 10.0 mi Calm Calm - N/A   Clear
4:14 AM 53.6 °F 51.8 °F 94% 30.08 in 10.0 mi Calm Calm - N/A   Clear
4:34 AM 53.6 °F 51.8 °F 94% 30.08 in 10.0 mi Calm Calm - N/A   Clear
4:54 AM 51.8 °F 50.0 °F 94% 30.09 in 10.0 mi Calm Calm - N/A   Clear
5:14 AM 51.8 °F 51.8 °F 100% 30.09 in 5.0 mi Calm Calm - N/A   Clear
5:34 AM 51.8 °F 51.8 °F 100% 30.10 in 10.0 mi Calm Calm - N/A   Clear
5:54 AM 51.8 °F 50.0 °F 94% 30.10 in 10.0 mi Calm Calm - N/A   Clear
6:14 AM 50.0 °F 48.2 °F 94% 30.10 in 2.0 mi Calm Calm - N/A   Clear
6:34 AM 51.8 °F 51.8 °F 100% 30.10 in 2.5 mi Calm Calm - N/A   Clear
6:45 AM 51.8 °F 51.8 °F 100% 30.10 in 10.0 mi NNE 5.8 mph - N/A   Clear
6:54 AM 53.6 °F 53.6 °F 100% 30.10 in 10.0 mi Calm Calm - N/A   Clear
7:45 AM 59.0 °F 57.2 °F 94% 30.11 in 10.0 mi NNE 5.8 mph - N/A   Scattered Clouds
8:45 AM 64.4 °F 57.2 °F 77% 30.13 in 10.0 mi NNE 5.8 mph - N/A   Scattered Clouds
9:45 AM 69.8 °F 55.4 °F 60% 30.13 in 10.0 mi NNE 4.6 mph - N/A   Scattered Clouds
10:45 AM 71.6 °F 55.4 °F 57% 30.14 in 10.0 mi South 9.2 mph - N/A   Scattered Clouds
11:45 AM 73.4 °F 53.6 °F 50% 30.13 in 10.0 mi SSE 9.2 mph - N/A   Overcast
12:45 PM 73.4 °F 53.6 °F 50% 30.11 in 10.0 mi SE 10.4 mph - N/A   Mostly Cloudy
1:45 PM 75.2 °F 55.4 °F 50% 30.11 in 10.0 mi SE 10.4 mph - N/A   Mostly Cloudy
2:45 PM 75.2 °F 53.6 °F 47% 30.09 in 10.0 mi South 8.1 mph - N/A   Mostly Cloudy
3:45 PM 75.2 °F 53.6 °F 47% 30.09 in 10.0 mi SSE 5.8 mph - N/A   Mostly Cloudy
4:50 PM 77.0 °F 53.6 °F 44% 30.09 in 10.0 mi SE 6.9 mph - N/A   Mostly Cloudy
5:45 PM 75.2 °F 53.6 °F 47% 30.09 in 10.0 mi South 8.1 mph - N/A   Mostly Cloudy
6:45 PM 75.2 °F 53.6 °F 47% 30.09 in 10.0 mi South 6.9 mph - N/A   Mostly Cloudy
7:45 PM 73.4 °F 55.4 °F 53% 30.09 in 10.0 mi South 4.6 mph - N/A   Mostly Cloudy
8:55 PM 69.8 °F 55.4 °F 60% 30.08 in 10.0 mi SSE 4.6 mph - N/A   Overcast
9:14 PM 71.6 °F 55.4 °F 57% 30.08 in 10.0 mi Calm Calm - N/A   Clear
9:34 PM 71.6 °F 55.4 °F 57% 30.08 in 10.0 mi Calm Calm - N/A   Mostly Cloudy
9:45 PM 71.6 °F 57.2 °F 60% 30.08 in 10.0 mi Calm Calm - N/A   Overcast
9:54 PM 71.6 °F 55.4 °F 57% 30.09 in 10.0 mi SE 3.5 mph - N/A   Overcast
10:14 PM 71.6 °F 55.4 °F 57% 30.09 in 10.0 mi Calm Calm - N/A   Overcast
10:34 PM 69.8 °F 55.4 °F 60% 30.09 in 10.0 mi SSE 4.6 mph - N/A   Mostly Cloudy
10:54 PM 69.8 °F 57.2 °F 64% 30.10 in 10.0 mi SE 3.5 mph - N/A Rain Light Rain
11:14 PM 68.0 °F 59.0 °F 73% 30.10 in 10.0 mi East 4.6 mph - N/A   Overcast
11:34 PM 68.0 °F 60.8 °F 78% 30.10 in 10.0 mi East 3.5 mph - N/A Rain Light Rain
11:53 PM 66.2 °F 62.6 °F 88% 30.11 in 10.0 mi Calm Calm - N/A Rain Light Rain